| time (UTC) | temp C | wind direction | speed KPH | gust KPH | rain 1hr cm | rain 24hr cm | rain mn cm | humidity % | barometer mb |
| 20260508023530 | 0 | 77 | 9.7 | 9.7 | 0.00 | 0.00 | 0.00 | 76 | 989.4 |
| 20260508022629 | 0 | 76 | 8.0 | 9.7 | 0.00 | 0.00 | 0.00 | 76 | 989.4 |
| 20260508021729 | 0 | 79 | 9.7 | 11.3 | 0.00 | 0.00 | 0.00 | 76 | 989.3 |
| 20260508015929 | 0 | 90 | 8.0 | 11.3 | 0.00 | 0.00 | 0.00 | 75 | 989.2 |
| 20260508015029 | 0 | 88 | 9.7 | 12.9 | 0.00 | 0.00 | 0.00 | 74 | 989.1 |
| 20260508014129 | 0 | 84 | 9.7 | 12.9 | 0.00 | 0.00 | 0.00 | 74 | 989.2 |
| 20260508013230 | 0 | 86 | 8.0 | 9.7 | 0.00 | 0.00 | 0.00 | 73 | 989.3 |
| 20260508012329 | 0 | 77 | 8.0 | 8.0 | 0.00 | 0.00 | 0.00 | 73 | 989.2 |
| 20260508011429 | 0 | 90 | 6.4 | 8.0 | 0.00 | 0.00 | 0.00 | 73 | 989.1 |
| 20260507233530 | 2 | 68 | 8.0 | 12.9 | 0.00 | 0.00 | 0.00 | 69 | 988.4 |
| 20260507232630 | 2 | 78 | 6.4 | 9.7 | 0.00 | 0.00 | 0.00 | 69 | 988.3 |
| 20260507231729 | 2 | 79 | 6.4 | 8.0 | 0.00 | 0.00 | 0.00 | 69 | 988.3 |
| 20260507230830 | 2 | 90 | 6.4 | 6.4 | 0.00 | 0.00 | 0.00 | 69 | 988.2 |
| 20260507225929 | 2 | 75 | 6.4 | 9.7 | 0.00 | 0.00 | 0.00 | 69 | 988.1 |
| 20260507225029 | 2 | 66 | 6.4 | 8.0 | 0.00 | 0.00 | 0.00 | 69 | 988.0 |
| 20260507224130 | 2 | 55 | 8.0 | 9.7 | 0.00 | 0.00 | 0.00 | 69 | 988.0 |
| 20260507223229 | 2 | 83 | 8.0 | 11.3 | 0.00 | 0.00 | 0.00 | 69 | 987.7 |
| 20260507222330 | 2 | 90 | 8.0 | 11.3 | 0.00 | 0.00 | 0.00 | 68 | 987.7 |
| 20260507221429 | 2 | 92 | 6.4 | 9.7 | 0.00 | 0.00 | 0.00 | 67 | 987.5 |
| 20260507220529 | 3 | 90 | 6.4 | 11.3 | 0.00 | 0.00 | 0.00 | 66 | 987.6 |
| 20260507215630 | 3 | 78 | 8.0 | 11.3 | 0.00 | 0.00 | 0.00 | 65 | 987.4 |
| 20260507214729 | 3 | 64 | 6.4 | 9.7 | 0.00 | 0.00 | 0.00 | 64 | 987.6 |
| 20260507213831 | 3 | 64 | 9.7 | 11.3 | 0.00 | 0.00 | 0.00 | 62 | 987.4 |
| 20260507212930 | 4 | 55 | 8.0 | 8.0 | 0.00 | 0.00 | 0.00 | 61 | 987.3 |
| 20260507211131 | 4 | 54 | 6.4 | 6.4 | 0.00 | 0.00 | 0.00 | 57 | 987.0 |
| 20260507205331 | 5 | 73 | 6.4 | 8.0 | 0.00 | 0.00 | 0.00 | 52 | 986.7 |
| 20260507204429 | 5 | 75 | 6.4 | 9.7 | 0.00 | 0.00 | 0.00 | 50 | 986.6 |
| 20260507202629 | 5 | 44 | 6.4 | 8.0 | 0.00 | 0.00 | 0.00 | 46 | 986.5 |
| 20260507201729 | 6 | 59 | 6.4 | 8.0 | 0.00 | 0.00 | 0.00 | 43 | 986.2 |
| 20260507200831 | 6 | 71 | 4.8 | 8.0 | 0.00 | 0.00 | 0.00 | 39 | 986.1 |
| 20260507195930 | 7 | 51 | 4.8 | 9.7 | 0.00 | 0.00 | 0.00 | 35 | 986.1 |
| 20260507194129 | 8 | 38 | 4.8 | 12.9 | 0.00 | 0.00 | 0.00 | 26 | 985.9 |
| 20260507193230 | 9 | 67 | 3.2 | 6.4 | 0.00 | 0.00 | 0.00 | 23 | 985.8 |
| 20260507192330 | 9 | 119 | 1.6 | 3.2 | 0.00 | 0.00 | 0.00 | 22 | 985.5 |
| 20260507191429 | 10 | 100 | 1.6 | 4.8 | 0.00 | 0.00 | 0.00 | 21 | 985.4 |
| 20260507190529 | 11 | 121 | 1.6 | 3.2 | 0.00 | 0.00 | 0.00 | 19 | 985.1 |
| 20260507185631 | 11 | 89 | 1.6 | 3.2 | 0.00 | 0.00 | 0.00 | 18 | 985.2 |
| 20260507184729 | 12 | 31 | 3.2 | 6.4 | 0.00 | 0.00 | 0.00 | 18 | 985.1 |
| 20260507183831 | 13 | 353 | 1.6 | 3.2 | 0.00 | 0.00 | 0.00 | 17 | 985.0 |
| 20260507182930 | 13 | 352 | 3.2 | 4.8 | 0.00 | 0.00 | 0.00 | 16 | 985.0 |
| 20260507182029 | 13 | 329 | 3.2 | 3.2 | 0.00 | 0.00 | 0.00 | 15 | 984.8 |
| 20260507181129 | 13 | 316 | 3.2 | 6.4 | 0.00 | 0.00 | 0.00 | 16 | 984.7 |
| 20260507180229 | 13 | 326 | 4.8 | 8.0 | 0.00 | 0.00 | 0.00 | 16 | 984.7 |
| 20260507175330 | 13 | 313 | 9.7 | 12.9 | 0.00 | 0.00 | 0.00 | 16 | 984.7 |
| 20260507174429 | 13 | 312 | 8.0 | 9.7 | 0.00 | 0.00 | 0.00 | 16 | 984.5 |
| 20260507172630 | 14 | 307 | 4.8 | 8.0 | 0.00 | 0.00 | 0.00 | 15 | 984.5 |
| 20260507170831 | 14 | 311 | 6.4 | 12.9 | 0.00 | 0.00 | 0.00 | 14 | 984.2 |
| 20260507165930 | 14 | 287 | 8.0 | 12.9 | 0.00 | 0.00 | 0.00 | 15 | 984.3 |
| 20260507163229 | 15 | 210 | 9.7 | 14.5 | 0.00 | 0.00 | 0.00 | 14 | 984.2 |
| 20260507162331 | 15 | 267 | 9.7 | 14.5 | 0.00 | 0.00 | 0.00 | 13 | 984.0 |
| 20260507161429 | 15 | 244 | 11.3 | 12.9 | 0.00 | 0.00 | 0.00 | 14 | 984.0 |
| 20260507160530 | 14 | 229 | 11.3 | 14.5 | 0.00 | 0.00 | 0.00 | 14 | 983.9 |
| 20260507154730 | 14 | 233 | 12.9 | 17.7 | 0.00 | 0.00 | 0.00 | 14 | 983.7 |
| 20260507153831 | 15 | 242 | 8.0 | 12.9 | 0.00 | 0.00 | 0.00 | 15 | 983.8 |
| 20260507152030 | 14 | 204 | 12.9 | 24.1 | 0.00 | 0.00 | 0.00 | 14 | 983.6 |
| 20260507151129 | 14 | 308 | 9.7 | 12.9 | 0.00 | 0.00 | 0.00 | 15 | 983.6 |
| 20260507150230 | 15 | 273 | 9.7 | 12.9 | 0.00 | 0.00 | 0.00 | 15 | 983.5 |
| 20260507144430 | 14 | 270 | 11.3 | 17.7 | 0.00 | 0.00 | 0.00 | 13 | 983.4 |
| 20260507143530 | 14 | 295 | 12.9 | 17.7 | 0.00 | 0.00 | 0.00 | 15 | 983.3 |
| 20260507142631 | 13 | 247 | 14.5 | 17.7 | 0.00 | 0.00 | 0.00 | 15 | 983.4 |
| 20260507140829 | 13 | 277 | 14.5 | 17.7 | 0.00 | 0.00 | 0.00 | 13 | 983.3 |
| 20260507135930 | 13 | 300 | 12.9 | 24.1 | 0.00 | 0.00 | 0.00 | 16 | 983.3 |
| 20260507135029 | 14 | 246 | 11.3 | 17.7 | 0.00 | 0.00 | 0.00 | 14 | 983.2 |
| 20260507134129 | 14 | 289 | 11.3 | 17.7 | 0.00 | 0.00 | 0.00 | 15 | 983.3 |
| 20260507133229 | 14 | 291 | 11.3 | 17.7 | 0.00 | 0.00 | 0.00 | 16 | 983.1 |
| 20260507132329 | 13 | 269 | 12.9 | 20.9 | 0.00 | 0.00 | 0.00 | 15 | 983.0 |
| 20260507131430 | 13 | 222 | 16.1 | 20.9 | 0.00 | 0.00 | 0.00 | 17 | 983.0 |
| 20260507125631 | 14 | 277 | 11.3 | 17.7 | 0.00 | 0.00 | 0.00 | 16 | 983.2 |
| 20260507124730 | 13 | 283 | 14.5 | 20.9 | 0.00 | 0.00 | 0.00 | 15 | 983.0 |
| 20260507123831 | 13 | 242 | 16.1 | 22.5 | 0.00 | 0.00 | 0.00 | 16 | 983.0 |
| 20260507122930 | 13 | 244 | 14.5 | 22.5 | 0.00 | 0.00 | 0.00 | 16 | 983.0 |
| 20260507122030 | 13 | 274 | 11.3 | 19.3 | 0.00 | 0.00 | 0.00 | 16 | 983.0 |
| 20260507121130 | 12 | 220 | 11.3 | 12.9 | 0.00 | 0.00 | 0.00 | 17 | 983.0 |
| 20260507120230 | 12 | 229 | 12.9 | 19.3 | 0.00 | 0.00 | 0.00 | 17 | 982.8 |
| 20260507115330 | 12 | 274 | 11.3 | 20.9 | 0.00 | 0.00 | 0.00 | 17 | 982.9 |
| 20260507114430 | 12 | 270 | 12.9 | 22.5 | 0.00 | 0.00 | 0.00 | 21 | 982.8 |
| 20260507113530 | 12 | 210 | 14.5 | 20.9 | 0.00 | 0.00 | 0.00 | 19 | 982.8 |
| 20260507112630 | 12 | 304 | 12.9 | 17.7 | 0.00 | 0.00 | 0.00 | 20 | 982.9 |
| 20260507111730 | 12 | 233 | 16.1 | 20.9 | 0.00 | 0.00 | 0.00 | 21 | 982.8 |
| 20260507110831 | 12 | 218 | 14.5 | 20.9 | 0.00 | 0.00 | 0.00 | 19 | 982.7 |
| 20260507105030 | 12 | 210 | 12.9 | 17.7 | 0.00 | 0.00 | 0.00 | 20 | 982.6 |
| 20260507103229 | 12 | 259 | 9.7 | 17.7 | 0.00 | 0.00 | 0.00 | 21 | 982.6 |
| 20260507102331 | 11 | 217 | 12.9 | 17.7 | 0.00 | 0.00 | 0.00 | 24 | 982.6 |
| 20260507101430 | 11 | 284 | 11.3 | 17.7 | 0.00 | 0.00 | 0.00 | 22 | 982.6 |
| 20260507100530 | 11 | 282 | 14.5 | 17.7 | 0.00 | 0.00 | 0.00 | 23 | 982.5 |
| 20260507095629 | 11 | 272 | 12.9 | 17.7 | 0.00 | 0.00 | 0.00 | 23 | 982.5 |
| 20260507093831 | 11 | 259 | 12.9 | 17.7 | 0.00 | 0.00 | 0.00 | 27 | 982.3 |
| 20260507091130 | 10 | 294 | 11.3 | 16.1 | 0.00 | 0.00 | 0.00 | 27 | 982.5 |
| 20260507090230 | 11 | 292 | 8.0 | 16.1 | 0.00 | 0.00 | 0.00 | 28 | 982.3 |
| 20260507085330 | 11 | 267 | 6.4 | 12.9 | 0.00 | 0.00 | 0.00 | 29 | 982.3 |
| 20260507084448 | 11 | 188 | 8.0 | 12.9 | 0.00 | 0.00 | 0.00 | 27 | 982.5 |
| 20260507083530 | 10 | 287 | 8.0 | 12.9 | 0.00 | 0.00 | 0.00 | 30 | 982.5 |
| 20260507082635 | 10 | 257 | 8.0 | 16.1 | 0.00 | 0.00 | 0.00 | 31 | 982.4 |
| 20260507075930 | 10 | 315 | 4.8 | 11.3 | 0.00 | 0.00 | 0.00 | 36 | 982.1 |
| 20260507075030 | 10 | 288 | 4.8 | 8.0 | 0.00 | 0.00 | 0.00 | 37 | 982.1 |
| 20260507074130 | 10 | 245 | 6.4 | 8.0 | 0.00 | 0.00 | 0.00 | 38 | 982.0 |
| 20260507073230 | 10 | 298 | 8.0 | 11.3 | 0.00 | 0.00 | 0.00 | 40 | 982.1 |
| 20260507071430 | 10 | 319 | 4.8 | 9.7 | 0.00 | 0.00 | 0.00 | 38 | 982.1 |
| 20260507070530 | 10 | 8 | 3.2 | 8.0 | 0.00 | 0.00 | 0.00 | 39 | 981.9 |
| 20260507065630 | 10 | 38 | 3.2 | 6.4 | 0.00 | 0.00 | 0.00 | 39 | 982.1 |
| 20260507063830 | 10 | 321 | 4.8 | 6.4 | 0.00 | 0.00 | 0.00 | 40 | 981.9 |
| 20260507062930 | 10 | 18 | 3.2 | 3.2 | 0.00 | 0.00 | 0.00 | 41 | 981.7 |
| 20260507062030 | 9 | 30 | 3.2 | 6.4 | 0.00 | 0.00 | 0.00 | 42 | 981.7 |
| 20260507061130 | 10 | 50 | 3.2 | 3.2 | 0.00 | 0.00 | 0.00 | 43 | 981.7 |
| 20260507060230 | 8 | 54 | 3.2 | 4.8 | 0.00 | 0.00 | 0.00 | 46 | 981.6 |
| 20260507055330 | 7 | 30 | 3.2 | 3.2 | 0.00 | 0.00 | 0.00 | 47 | 981.5 |
| 20260507054431 | 6 | 49 | 3.2 | 6.4 | 0.00 | 0.00 | 0.00 | 49 | 981.4 |
| 20260507053530 | 6 | 33 | 4.8 | 6.4 | 0.00 | 0.00 | 0.00 | 51 | 981.5 |
| 20260507052631 | 5 | 39 | 6.4 | 6.4 | 0.00 | 0.00 | 0.00 | 52 | 981.4 |
| 20260507051730 | 4 | 40 | 6.4 | 8.0 | 0.00 | 0.00 | 0.00 | 52 | 981.5 |
| 20260507050831 | 3 | 10 | 6.4 | 8.0 | 0.00 | 0.00 | 0.00 | 52 | 981.4 |
| 20260507045930 | 4 | 65 | 4.8 | 6.4 | 0.00 | 0.00 | 0.00 | 51 | 981.3 |
| 20260507044130 | 3 | 101 | 4.8 | 6.4 | 0.00 | 0.00 | 0.00 | 53 | 981.0 |
| 20260507043230 | 2 | 61 | 6.4 | 6.4 | 0.00 | 0.00 | 0.00 | 56 | 981.0 |
| 20260507042331 | 2 | 65 | 6.4 | 9.7 | 0.00 | 0.00 | 0.00 | 56 | 980.9 |
| 20260507041430 | 2 | 66 | 6.4 | 6.4 | 0.00 | 0.00 | 0.00 | 56 | 981.0 |
| 20260507040530 | 2 | 90 | 8.0 | 8.0 | 0.00 | 0.00 | 0.00 | 58 | 980.8 |
| 20260507035630 | 2 | 86 | 6.4 | 8.0 | 0.00 | 0.00 | 0.00 | 58 | 980.9 |
| 20260507034730 | 1 | 93 | 6.4 | 8.0 | 0.00 | 0.00 | 0.00 | 59 | 980.7 |
| 20260507032030 | 0 | 93 | 6.4 | 8.0 | 0.00 | 0.00 | 0.00 | 65 | 980.5 |
| 20260507031131 | 0 | 120 | 6.4 | 6.4 | 0.00 | 0.00 | 0.00 | 66 | 980.5 |
| 20260507030230 | 0 | 119 | 6.4 | 6.4 | 0.00 | 0.00 | 0.00 | 68 | 980.5 |
| 20260507025331 | 0 | 121 | 4.8 | 6.4 | 0.00 | 0.00 | 0.00 | 69 | 980.4 |
| 20260507024431 | 0 | 102 | 4.8 | 6.4 | 0.00 | 0.00 | 0.00 | 68 | 980.4 |